MOLNIYA 2-9

Last updated on Jan. 24, 2021, 6:18 a.m. UTC

1 07276U 74026A   21023.80386982 -.00000009  00000-0  00000-0 0  9993
2 07276  64.1724 303.7545 6727990 286.4113  13.7485  2.45094936236865
UTC
Height (km)
Latitude
Longitude
Inclination
Orbital Period
UTC large
Height (km)
Speed (km/s)
/
Latitude / Longitude
Inclination (degrees)
Orbital Period (minutes)
Azimuth
Elevation
Range (km)
Doppler Factor
iOS Compass Heading
iOS Angle

Next 30 passes for location: Hong Kong

Rise time Rise Azimuth (degrees) Set time Set Azimuth (degrees) Duration Max altitude (degrees)

No matching passes for this satellites